This demonstration page uses our WeatherBlox Daily Observations layout. Learn more.

Left ArrowRight Arrow

38.88101, -77.10428

Hourly Observations for May 15, 2022

Temp ( °F °C ) Dew Point ( °F °C ) Humidity (%) Winds ( mph kmh ) Pressure ( in mb ) Visibility ( mi km ) Precip ( " mm )
12:52 am 00:52 Mostly Cloudy with Mist and Fog 65 18.3 63 17.2 93 93 S 5 7 29.96 1014 2 3 0.00 0.00
1:07 am 01:07 Mostly Cloudy with Fog 64 17.8 63 17.2 96 96 S 5 7 29.95 1014 0 0 0.00 0.00
1:10 am 01:10 Mostly Cloudy with Fog 64 17.8 63 17.2 96 96 SSE 5 7 29.95 1014 1 2 0.00 0.00
1:18 am 01:18 Mostly Cloudy with Fog 64 17.8 62 16.7 93 93 S 7 11 29.95 1014 1 2 0.00 0.00
1:52 am 01:52 Mostly Cloudy with Fog 64 17.8 62 16.7 93 93 SSE 6 9 29.93 1014 1 2 0.00 0.00
2:15 am 02:15 Mostly Cloudy with Fog 64 17.8 62 16.7 93 93 S 5 7 29.93 1014 0 0 0.00 0.00
2:49 am 02:49 Mostly Cloudy with Fog 64 18 63 17 94 94 S 3 6 29.92 1013 1 1 0.00 0.00
2:52 am 02:52 Mostly Cloudy with Fog 64 17.8 62 16.7 93 93 S 3 6 29.92 1013 1 1 0.00 0.00
3:09 am 03:09 Mostly Cloudy with Fog 64 17.8 62 16.7 93 93 S 3 6 29.91 1013 0 0 0.00 0.00
3:52 am 03:52 Mostly Cloudy with Fog 64 17.8 62 16.7 93 93 SE 3 6 29.91 1013 0 0 0.00 0.00
4:28 am 04:28 Mostly Cloudy with Fog 64 17.8 62 16.7 93 93 S 3 6 29.92 1013 1 2 0.00 0.00
4:30 am 04:30 Mostly Cloudy with Fog 64 17.8 62 16.7 93 93 S 3 6 29.92 1013 1 2 0.00 0.00
4:52 am 04:52 Mostly Cloudy with Fog 64 17.8 62 16.7 93 93 S 7 11 29.91 1013 1 2 0.00 0.00
5:17 am 05:17 Mostly Cloudy with Fog 64 17.8 62 16.7 93 93 S 5 7 29.92 1013 1 2 0.00 0.00
5:37 am 05:37 Mostly Cloudy with Fog 64 17.8 62 16.7 93 93 S 8 13 29.92 1013 1 2 0.00 0.00
5:47 am 05:47 Mostly Cloudy with Fog 64 18 63 17 94 94 S 6 9 29.92 1013 1 2 0.00 0.00
5:52 am 05:52 Mostly Cloudy with Fog 64 17.8 62 16.7 93 93 S 6 9 29.92 1013 1 2 0.00 0.00
6:08 am 06:08 Mostly Cloudy with Fog 63 17.2 62 16.7 97 97 S 5 7 29.92 1013 1 2 0.00 0.00
6:20 am 06:20 Mostly Cloudy with Fog 63 17.2 62 16.7 97 97 S 6 9 29.92 1013 1 2 0.00 0.00
6:42 am 06:42 Mostly Cloudy with Fog 64 17.8 62 16.7 93 93 S 5 7 29.93 1014 0 0 0.00 0.00
6:46 am 06:46 Mostly Cloudy with Fog 64 18 63 17 94 94 S 3 6 29.93 1014 1 1 0.00 0.00
6:52 am 06:52 Mostly Cloudy with Fog 64 17.8 62 16.7 93 93 S 3 6 29.93 1014 1 1 0.00 0.00
7:06 am 07:06 Cloudy with Mist and Fog 64 17.8 62 16.7 93 93 S 3 6 29.94 1014 2 2 0.00 0.00
7:52 am 07:52 Cloudy with Mist and Fog 64 17.8 62 16.7 93 93 SSE 5 7 29.93 1014 2 2 0.00 0.00
8:20 am 08:20 Cloudy with Mist and Fog 65 18.3 63 17.2 93 93 S 6 9 29.93 1014 2 3 0.00 0.00
8:32 am 08:32 Cloudy with Mist and Fog 65 18.3 63 17.2 93 93 S 5 7 29.94 1014 2 3 0.00 0.00
8:52 am 08:52 Cloudy with Mist and Fog 65 18.3 62 16.7 90 90 S 5 7 29.93 1014 2 3 0.00 0.00
9:28 am 09:28 Cloudy with Mist and Fog 65 18.3 63 17.2 93 93 S 6 9 29.94 1014 4 6 0.00 0.00
9:44 am 09:44 Cloudy 66 18.9 63 17.2 90 90 SSE 6 9 29.94 1014 7 11 0.00 0.00
9:52 am 09:52 Cloudy 66 18.9 63 17.2 90 90 SSE 6 9 29.94 1014 9 14 0.00 0.00
10:05 am 10:05 Cloudy 67 19.4 63 17.2 87 87 SSE 5 7 29.94 1014 10 16 0.00 0.00
10:52 am 10:52 Cloudy 69 20.6 64 17.8 84 84 SE 5 7 29.93 1014 10 16 0.00 0.00
11:52 am 11:52 Cloudy 72 22.2 64 17.8 76 76 S 7 11 29.93 1014 10 16 0.00 0.00
12:01 pm 12:01 Mostly Cloudy 73 22.8 64 17.8 74 74 S 6 9 29.93 1013 10 16 0.00 0.00
12:17 pm 12:17 Partly Cloudy 74 23.3 65 18.3 74 74 S 7 11 29.93 1013 10 16 0.00 0.00
12:52 pm 12:52 Partly Cloudy 75 23.9 64 17.8 69 69 SSE 5 7 29.91 1013 10 16 0.00 0.00
1:52 pm 13:52 Partly Cloudy 76 24.4 64 17.8 67 67 S 7 11 29.90 1012 10 16 0.00 0.00
2:52 pm 14:52 Partly Cloudy 78 25.6 64 17.8 62 62 S 7 11 29.86 1011 10 16 0.00 0.00
3:52 pm 15:52 Partly Cloudy 80 26.7 63 17.2 56 56 S 8 13 29.83 1010 9 14 0.00 0.00
4:52 pm 16:52 Partly Cloudy 81 27.2 64 17.8 57 57 S 8 13 29.81 1010 10 16 0.00 0.00
5:52 pm 17:52 Mostly Cloudy 81 27.2 64 17.8 57 57 S 7 11 29.81 1009 10 16 0.00 0.00
6:52 pm 18:52 Cloudy 74 23.3 59 15 60 60 NW 18 30 29.82 1010 10 16 0.00 0.00
7:01 pm 19:01 Cloudy with Heavy Rain 72 22.2 61 16.1 68 68 NW 17 28 29.83 1010 2 3 0.01 0.25
7:03 pm 19:03 Cloudy with Heavy Rain 71 21.7 62 16.7 73 73 NW 16 26 29.83 1010 1 2 0.04 1.02
7:07 pm 19:07 Cloudy with Heavy Rain 70 21.1 63 17.2 79 79 NW 17 28 29.83 1010 1 1 0.12 3.05
7:19 pm 19:19 Cloudy with Heavy Rain 69 20.6 63 17.2 81 81 NNW 12 19 29.83 1010 1 2 0.34 8.64
7:22 pm 19:22 Cloudy with Strong Thunderstorms 69 20.6 63 17.2 81 81 N 8 13 29.83 1010 2 2 0.36 9.14
7:27 pm 19:27 Cloudy with Thunderstorms 69 20.6 63 17.2 81 81 N 8 13 29.83 1010 3 4 0.39 9.91
7:30 pm 19:30 Cloudy with Thunderstorms 69 20.6 63 17.2 81 81 N 5 7 29.83 1010 4 6 0.39 9.91
7:37 pm 19:37 Cloudy with Thunderstorms 69 20.6 63 17.2 81 81 SSE 6 9 29.83 1010 8 13 0.40 10.16
7:41 pm 19:41 Cloudy with Nearby Thunderstorms 69 20.6 64 17.8 84 84 Calm 29.83 1010 8 13 0.40 10.16
7:52 pm 19:52 Cloudy with Nearby Thunderstorms 69 20.6 63 17.2 81 81 W 5 7 29.82 1010 6 10 0.41 10.41
7:59 pm 19:59 Cloudy with Light Rain 69 20.6 64 17.8 84 84 W 3 6 29.82 1010 9 14 0.01 0.25
8:52 pm 20:52 Mostly Cloudy with Light Rain 68 20 65 18.3 90 90 S 6 9 29.83 1010 10 16 0.03 0.76
9:52 pm 21:52 Mostly Cloudy 68 20 65 18.3 90 90 SSW 8 13 29.84 1011 10 16 0.00 0.00
10:52 pm 22:52 Cloudy 68 20 64 17.8 87 87 S 3 6 29.85 1011 10 16 0.00 0.00
11:52 pm 23:52 Mostly Cloudy 68 20 64 17.8 87 87 S 3 6 29.83 1010 10 16 0.00 0.00

Powered by AerisWeather